CW0775 Weather Reports


time (UTC)temp
F
wind
direction
speed
knots
gust
knots
rain 1hr
in
rain 24hr
in
rain mn
in
humidity
%
barometer
mb
20240614121004 60 260 0.0 2.6 0.00 0.01 0.01 81 1011.2
20240614120504 60 232 2.6 6.1 0.00 0.01 0.01 81 1011.5
20240614120004 59 252 1.7 4.3 0.00 0.01 0.01 82 1011.3
20240614114504 59 241 1.7 4.3 0.00 0.01 0.01 83 1011.5
20240614114004 59 219 0.0 2.6 0.00 0.01 0.01 83 1011.5
20240614113504 59 258 0.0 2.6 0.00 0.01 0.01 84 1011.5
20240614111504 58 299 0.9 2.6 0.00 0.01 0.01 83 1011.7
20240614110504 58 346 0.0 2.6 0.00 0.01 0.01 82 1011.5
20240614110004 58 281 0.9 7.0 0.00 0.01 0.01 82 1011.8
20240614104504 58 211 1.7 6.1 0.00 0.01 0.01 81 1011.9
20240614104004 58 283 2.6 4.3 0.00 0.01 0.01 81 1011.9
20240614103004 58 319 3.5 7.0 0.00 0.01 0.01 81 1011.7
20240614101504 58 264 0.9 7.0 0.00 0.01 0.01 81 1011.9
20240614100504 57 273 4.3 7.0 0.00 0.01 0.01 82 1011.9
20240614100004 57 263 0.9 2.6 0.00 0.01 0.01 82 1011.9
20240614094505 58 274 0.9 2.6 0.00 0.01 0.01 82 1011.7
20240614094006 58 257 0.0 4.3 0.00 0.01 0.01 82 1011.9
20240614093506 59 286 0.0 4.3 0.00 0.01 0.01 81 1011.5
20240614093006 58 182 2.6 11.3 0.00 0.01 0.01 80 1011.7
20240614091505 58 265 0.0 2.6 0.00 0.01 0.01 81 1011.9
20240614091006 58 194 0.9 2.6 0.00 0.01 0.01 81 1011.9
20240614084505 56 279 0.9 2.6 0.00 0.01 0.01 85 1011.9
20240614084006 56 257 0.0 2.6 0.00 0.01 0.01 86 1012.2
20240614083506 56 257 0.9 2.6 0.00 0.01 0.01 85 1012.2
20240614083006 56 257 0.9 2.6 0.00 0.01 0.01 85 1012.0
20240614081506 56 265 0.0 1.7 0.00 0.01 0.01 85 1012.1
20240614081005 56 246 0.0 1.7 0.00 0.01 0.01 86 1011.9
20240614080505 56 270 0.0 1.7 0.00 0.01 0.01 86 1011.9
20240614080006 56 260 0.0 1.7 0.00 0.01 0.01 86 1012.2
20240614074506 55 258 0.9 1.7 0.00 0.01 0.01 85 1012.2
20240614074006 55 258 0.0 0.0 0.00 0.01 0.01 86 1012.2
20240614073505 55 259 0.0 1.7 0.00 0.01 0.01 86 1012.2
20240614071006 54 263 0.0 1.7 0.00 0.01 0.01 87 1012.2
20240614070505 53 261 0.0 1.7 0.00 0.01 0.01 88 1012.2
20240614070005 54 257 0.0 0.0 0.00 0.01 0.01 88 1012.2
20240614064505 53 252 0.0 0.0 0.00 0.01 0.01 88 1012.2
20240614064006 53 255 0.0 0.0 0.00 0.01 0.01 88 1012.5
20240614063005 53 255 0.0 0.0 0.01 0.01 0.01 88 1012.2
20240614061505 52 262 0.0 0.0 0.01 0.01 0.01 89 1012.2
20240614061005 52 262 0.0 0.0 0.01 0.01 0.01 89 1012.2
20240614060505 52 259 0.0 0.0 0.01 0.01 0.01 89 1012.2
20240614060006 52 259 0.0 0.0 0.01 0.01 0.01 89 1012.2
20240614053505 52 254 0.0 0.0 0.00 0.00 0.00 90 1012.5
20240614053006 51 254 0.0 0.0 0.00 0.00 0.00 89 1012.5
20240614051505 51 258 0.0 0.0 0.00 0.00 0.00 89 1012.5
20240614051005 51 257 0.0 0.0 0.00 0.00 0.00 88 1012.9
20240614050504 52 253 0.0 0.0 0.00 0.00 0.00 88 1012.9
20240614050005 52 258 0.0 1.7 0.00 0.00 0.00 88 1012.5
20240614044506 52 254 0.0 0.0 0.00 0.00 0.00 87 1012.5
20240614044005 51 245 0.0 2.6 0.00 0.00 0.00 87 1012.7
20240614043005 52 268 0.0 6.1 0.00 0.00 0.00 87 1012.5
20240614041504 52 226 0.0 0.0 0.00 0.00 0.00 88 1012.5
20240614041005 51 238 0.0 0.0 0.00 0.00 0.00 88 1012.2
20240614040505 51 239 0.0 0.0 0.00 0.00 0.00 88 1012.0
20240614034006 51 238 0.0 0.0 0.00 0.00 0.00 88 1011.9
20240614033505 51 238 0.0 0.0 0.00 0.00 0.00 88 1011.9
20240614031505 51 238 0.0 0.0 0.00 0.00 0.00 87 1012.0
20240614031004 51 238 0.0 0.0 0.00 0.00 0.00 87 1012.1
20240614030505 51 238 0.0 0.0 0.00 0.00 0.00 87 1011.9
20240614030006 51 238 0.0 0.0 0.00 0.00 0.00 87 1012.0
20240614024505 51 238 0.0 0.0 0.00 0.00 0.00 87 1012.2
20240614024005 51 238 0.0 0.0 0.00 0.00 0.00 87 1012.2
20240614023505 51 238 0.0 0.0 0.00 0.00 0.00 87 1012.2
20240614023005 51 238 0.0 0.0 0.00 0.00 0.00 86 1012.2
20240614021505 51 238 0.0 0.0 0.00 0.00 0.00 86 1012.5
20240614021005 51 238 0.0 0.0 0.00 0.00 0.00 86 1012.5
20240614020505 51 238 0.0 0.0 0.00 0.00 0.00 85 1012.5
20240614020005 51 238 0.0 0.0 0.00 0.00 0.00 85 1012.5
20240614014505 51 237 0.0 0.0 0.00 0.00 0.00 85 1012.6
20240614014005 51 251 0.0 0.0 0.00 0.00 0.00 85 1012.5
20240614013505 51 251 0.0 0.0 0.00 0.00 0.00 85 1012.9
20240614013005 51 251 0.0 0.0 0.00 0.00 0.00 85 1012.9
20240614011505 51 253 0.0 0.0 0.00 0.00 0.00 85 1012.7
20240614011005 51 254 0.0 0.0 0.00 0.00 0.00 85 1012.9
20240614010005 51 240 0.0 0.0 0.00 0.00 0.00 85 1013.0
20240614004005 51 260 0.0 0.0 0.00 0.00 0.00 84 1013.2
20240614003505 51 260 0.0 0.0 0.00 0.00 0.00 84 1013.5
20240614001505 52 260 0.0 0.0 0.00 0.00 0.00 83 1013.5
20240614001005 52 266 0.0 0.0 0.00 0.00 0.00 83 1013.7
20240614000006 52 266 0.0 0.0 0.00 0.00 0.00 83 1013.9
20240613234504 52 267 0.0 0.0 0.00 0.00 0.00 83 1013.6
20240613234005 52 267 0.0 0.0 0.00 0.00 0.00 83 1013.9
20240613233504 52 267 0.0 0.0 0.00 0.00 0.00 83 1013.9
20240613231505 52 267 0.0 0.0 0.00 0.00 0.00 83 1014.0
20240613231004 52 267 0.0 0.0 0.00 0.00 0.00 83 1014.2
20240613230504 52 267 0.0 0.0 0.00 0.00 0.00 82 1014.2
20240613230005 52 267 0.0 0.0 0.00 0.00 0.00 82 1014.1
20240613224505 52 267 0.0 0.0 0.00 0.00 0.00 81 1014.0
20240613223004 53 267 0.0 0.0 0.00 0.00 0.00 80 1014.2
20240613221505 53 266 0.0 0.0 0.00 0.00 0.00 80 1014.6
20240613221004 53 265 0.0 0.0 0.00 0.00 0.00 79 1014.6
20240613220504 54 265 0.0 0.0 0.00 0.00 0.00 78 1014.6
20240613220005 54 265 0.0 0.0 0.00 0.00 0.00 78 1014.6
20240613214005 54 266 0.0 0.0 0.00 0.00 0.00 77 1014.8
20240613213504 54 266 0.0 0.0 0.00 0.00 0.00 77 1014.8
20240613213004 54 266 0.0 1.7 0.00 0.00 0.00 77 1014.9
20240613211504 53 268 0.0 1.7 0.00 0.00 0.00 79 1014.9
20240613211004 53 266 0.0 0.0 0.00 0.00 0.00 78 1014.6
20240613210505 53 262 0.0 0.0 0.00 0.00 0.00 78 1014.6
20240613210005 53 261 0.0 0.0 0.00 0.00 0.00 77 1014.9
20240613204505 53 264 0.0 0.0 0.00 0.00 0.00 78 1015.0
20240613204006 53 265 0.0 0.0 0.00 0.00 0.00 78 1014.9
20240613201504 53 264 0.0 0.0 0.00 0.00 0.00 76 1015.2
20240613201005 53 263 0.0 0.0 0.00 0.00 0.00 76 1015.2
20240613200005 54 263 0.0 0.0 0.00 0.00 0.00 75 1015.2
20240613194505 56 263 0.0 0.0 0.00 0.00 0.00 72 1015.0
20240613193504 57 263 0.0 0.0 0.00 0.00 0.00 70 1015.2
20240613193005 58 245 0.0 0.0 0.00 0.00 0.00 68 1014.9
20240613191504 60 243 0.0 0.0 0.00 0.00 0.00 64 1015.2
20240613191006 60 244 0.0 0.0 0.00 0.00 0.00 63 1014.9
20240613190005 61 245 0.0 0.0 0.00 0.00 0.00 61 1014.9
20240613184506 62 245 0.0 0.0 0.00 0.00 0.00 62 1015.2
20240613184005 62 246 0.0 0.0 0.00 0.00 0.00 62 1015.6
20240613183505 62 246 0.0 0.0 0.00 0.00 0.00 62 1015.5
20240613181504 63 247 0.0 0.0 0.00 0.00 0.00 60 1015.6
20240613181005 63 247 0.0 0.0 0.00 0.00 0.00 58 1015.6
20240613180006 64 250 0.0 0.0 0.00 0.00 0.00 55 1015.6
20240613174505 66 250 0.0 0.0 0.00 0.00 0.00 51 1015.9
20240613174005 66 254 0.0 0.0 0.00 0.00 0.00 48 1015.6
20240613173504 66 253 0.0 0.0 0.00 0.00 0.00 50 1015.6
20240613173005 66 253 0.0 2.6 0.00 0.00 0.00 46 1015.6
20240613171504 67 258 0.9 1.7 0.00 0.00 0.00 43 1015.6
20240613171004 67 325 0.0 0.0 0.00 0.00 0.00 45 1016.2
20240613170505 67 241 0.0 1.7 0.00 0.00 0.00 45 1015.8
20240613170005 67 242 0.0 4.3 0.00 0.00 0.00 44 1015.7
20240613164504 68 260 0.0 1.7 0.00 0.00 0.00 43 1015.9
20240613164006 67 259 0.0 2.6 0.00 0.00 0.00 44 1015.9
20240613163504 69 150 2.6 6.1 0.00 0.00 0.00 41 1015.9
20240613163004 68 258 0.0 2.6 0.00 0.00 0.00 44 1016.3
20240613161504 67 237 0.0 4.3 0.00 0.00 0.00 43 1016.3
20240613161004 67 223 0.0 1.7 0.00 0.00 0.00 46 1016.3
20240613160004 68 220 0.0 2.6 0.00 0.00 0.00 43 1016.3
20240613154504 67 265 0.0 1.7 0.00 0.00 0.00 45 1016.3
20240613154005 67 275 0.9 2.6 0.00 0.00 0.00 45 1016.3
20240613153504 67 284 0.9 6.1 0.00 0.00 0.00 43 1016.3
20240613153004 68 240 1.7 6.1 0.00 0.00 0.00 42 1016.3
20240613151504 67 258 0.9 2.6 0.00 0.00 0.00 44 1016.6
20240613151004 66 0 0.0 2.6 0.00 0.00 0.00 45 1016.6
20240613150504 66 21 0.9 1.7 0.00 0.00 0.00 45 1016.6
20240613144504 66 277 0.9 6.1 0.00 0.00 0.00 42 1016.9
20240613144005 67 215 0.9 2.6 0.00 0.00 0.00 44 1016.7
20240613143504 68 228 1.7 4.3 0.00 0.00 0.00 43 1016.9
20240613143004 67 242 0.0 6.1 0.00 0.00 0.00 43 1016.9
20240613141504 67 146 2.6 6.1 0.00 0.00 0.00 43 1016.9
20240613141005 68 212 0.9 6.1 0.00 0.00 0.00 42 1017.2
20240613140503 68 217 1.7 4.3 0.00 0.00 0.00 42 1017.3
20240613134504 67 251 2.6 6.1 0.00 0.00 0.00 41 1017.3
20240613134005 68 287 1.7 6.1 0.00 0.00 0.00 42 1017.3
20240613133504 68 235 1.7 2.6 0.00 0.00 0.00 41 1017.5
20240613133004 68 234 0.9 6.1 0.00 0.00 0.00 43 1017.6
20240613131504 67 321 1.7 4.3 0.00 0.00 0.00 42 1017.4
20240613131004 67 295 1.7 7.0 0.00 0.00 0.00 42 1017.6
20240613130005 67 265 0.9 7.0 0.00 0.00 0.00 42 1017.9
20240613124503 67 247 0.0 2.6 0.00 0.00 0.00 44 1017.8
20240613124005 67 247 0.9 4.3 0.00 0.00 0.00 44 1017.9
20240613123505 67 248 0.0 2.6 0.00 0.00 0.00 43 1017.9
20240613123004 66 161 1.7 7.0 0.00 0.00 0.00 42 1017.8